CDT,Max TemperatureF,Mean TemperatureF,Min TemperatureF,Max Dew PointF,MeanDew PointF,Min DewpointF,Max Humidity, Mean Humidity, Min Humidity, Max Sea Level PressureIn, Mean Sea Level PressureIn, Min Sea Level PressureIn, Max VisibilityMiles, Mean VisibilityMiles, Min VisibilityMiles, Max Wind SpeedMPH, Mean Wind SpeedMPH, Max Gust SpeedMPH,PrecipitationIn, CloudCover, Events, WindDirDegrees
2013-4-1,37,30,22,21,19,16,81,67,52,30.30,30.23,30.09,10,10,10,21,12,24,0.00,2,,322
2013-4-2,42,31,20,23,21,18,92,70,48,30.37,30.34,30.30,10,10,10,20,8,24,0.00,1,,315
2013-4-3,46,33,20,22,20,18,88,61,33,30.44,30.36,30.27,10,10,10,15,7,20,0.00,0,,133
2013-4-4,59,44,28,40,29,20,82,61,40,30.25,30.13,30.05,10,10,10,21,11,28,0.00,1,,272
2013-4-5,57,44,30,30,28,25,92,64,35,30.21,30.09,29.87,10,10,10,22,11,26,0.00,2,,96
2013-4-6,64,50,36,49,40,30,89,70,50,29.86,29.68,29.55,10,9,6,26,16,36,T,3,Rain,213
2013-4-7,63,48,32,44,37,30,100,74,47,29.96,29.85,29.69,10,7,3,21,9,26,T,4,,43
2013-4-8,73,59,44,53,49,43,100,72,44,29.82,29.70,29.62,10,7,0,22,8,29,0.07,4,Fog-Rain,167
2013-4-9,52,46,40,52,47,39,100,95,89,29.89,29.79,29.73,10,6,2,32,17,37,1.17,8,Rain-Thunderstorm,59
2013-4-10,40,39,37,39,37,35,100,96,92,30.02,29.88,29.75,10,8,2,31,16,38,0.93,8,Rain-Thunderstorm,51
2013-4-11,44,40,36,43,37,33,100,90,79,29.74,29.62,29.56,10,6,1,23,9,29,0.30,8,Rain,138
2013-4-12,38,36,33,36,31,28,100,85,70,29.94,29.74,29.56,10,10,5,24,16,29,T,8,Rain,287
2013-4-13,49,40,30,36,30,25,85,72,58,30.00,29.94,29.88,10,10,10,18,11,24,0.07,6,Rain,286
2013-4-14,65,49,32,54,45,35,100,82,63,29.87,29.61,29.42,10,9,2,36,16,47,0.31,7,Rain,135
2013-4-15,46,40,33,42,33,28,92,75,57,30.07,29.86,29.65,10,10,10,22,12,28,T,5,Rain,273
2013-4-16,51,41,30,36,32,28,92,73,54,30.26,30.19,30.07,10,10,10,18,9,23,0.00,3,,351
2013-4-17,48,44,39,46,40,34,100,83,65,30.22,29.94,29.56,10,6,1,35,16,43,2.17,8,Rain-Thunderstorm,65
2013-4-18,42,38,33,42,37,30,100,91,82,29.70,29.57,29.48,10,7,2,28,18,33,0.60,8,Rain-Snow,334
2013-4-19,38,34,29,30,27,25,89,77,64,30.07,29.79,29.62,10,10,9,32,22,39,0.00,7,,294
2013-4-20,47,36,25,28,24,20,92,65,38,30.31,30.23,30.09,10,10,10,20,7,26,0.00,2,,327
2013-4-21,65,52,39,47,37,26,79,60,40,30.30,30.20,30.08,10,10,10,25,17,32,0.06,7,Rain,152
2013-4-22,66,52,38,50,46,39,100,74,48,30.18,30.05,29.91,10,10,5,32,11,39,0.17,7,Rain,181
2013-4-23,41,36,31,35,30,26,92,76,59,30.13,30.09,30.06,10,10,10,24,17,30,T,6,,339
2013-4-24,53,40,26,39,29,24,92,62,32,30.16,30.10,30.01,10,10,10,31,12,43,0.03,2,Rain,265
2013-4-25,58,44,29,34,31,27,92,64,36,30.28,30.21,30.12,10,10,10,20,10,25,0.00,0,,253
2013-4-26,68,57,45,49,43,34,83,64,44,30.20,30.14,30.11,10,10,10,26,16,36,0.00,2,,193
2013-4-27,66,55,43,49,45,42,100,74,48,30.22,30.11,29.99,10,10,6,16,7,22,0.00,1,,171
2013-4-28,74,57,39,50,46,39,100,71,41,30.00,29.87,29.75,10,8,1,16,8,22,0.00,0,,203
2013-4-29,78,64,50,60,54,49,96,72,47,29.79,29.69,29.56,10,10,9,26,8,33,T,1,,147
2013-4-30,83,69,55,61,55,44,68,54,39,29.87,29.65,29.54,10,10,9,33,17,40,0.03,3,Rain-Thunderstorm,231